Voltar ao catálogo

FREGAT R/B

AtivoHEO
NORAD 46806·ROCKET BODY·🇷🇺 Russia

Lançado Oct 25, 2020 de Plesetsk Cosmodrome

Loading…

Próximas Passagens (próximas 24 horas)

TLE

AtualizadoSource: Space-Track

Época: Sep 13, 2026, 20:07 UTC

1 46806U 20075B   26256.83887102  .00000019  00000-0  00000-0 0  9996
2 46806  64.5722 192.9283 0054412 128.5055 231.9799  2.08518273 44811

Acompanhe FREGAT R/B em tempo real com AllMySat

Download on the App Store